Erzincan, Turkey

12:42 AM +03 on May 23, 2017 (GMT +0300)
Erzincan

Weather History for LTCD - October, 2012

Change the Weather History Date:

Monday, October 1, 2012

  Actual Average Record
Temperature  
Mean Temperature 66 °F -  
Max Temperature 89 °F 66 °F - ()
Min Temperature 43 °F 41 °F - ()
Cooling Degree Days 1    
Growing Degree Days 16 (Base 50)    
Moisture  
Dew Point 35 °F    
Average Humidity 36    
Maximum Humidity 76    
Minimum Humidity 7    
Precipitation  
Precipitation 0.00 in 0.05 in - ()
Sea Level Pressure  
Sea Level Pressure 30.25 in    
Wind  
Wind Speed 1 mph ()    
Max Wind Speed 7 mph    
Max Gust Speed -    
Visibility 6.1 miles    
Events      
T = Trace of Precipitation, MM = Missing Value Source: Averaged Metar Reports

Daily Weather History Graph

Daily Weather History Graph

Search for Another Location

Airport or City:

Trip Planner

Search our weather history database for the weather conditions in past years. The results will help you decide how hot, cold, wet, or windy it might be!

Date:

Astronomy

Oct. 01, 2012 Rise Set
Actual Time 6:18 AM EEST 6:04 PM EEST
Civil Twilight 5:51 AM EEST 6:31 PM EEST
Nautical Twilight 5:20 AM EEST 7:02 PM EEST
Astronomical Twilight 4:48 AM EEST 7:33 PM EEST
Moon 6:29 PM EEST (10/1) 7:26 AM EEST (10/1)
Length of Visible Light 12h 39m
Length of Day
11h 45m
Full, 99% of the Moon is Illuminated
Oct 1
Full
Oct 8
Last Quarter
Oct 15
New
Oct 22
First Quarter
Oct 29
Full

Hourly Weather History & Observations

Time (EEST) Temp. Dew Point Humidity Pressure Visibility Wind Dir Wind Speed Gust Speed Precip Events Conditions
12:50 AM 53.6 °F 37.4 °F 54% 30.24 in - Calm Calm - N/A   Clear
1:50 AM 53.6 °F 37.4 °F 54% 30.24 in - Variable 2.3 mph - N/A   Clear
3:00 AM 48 °F 37 °F 54%  in 6 mi Calm Calm - -  
3:50 AM 48.2 °F 37.4 °F 66% 30.27 in - Calm Calm - N/A   Clear
4:50 AM 51.8 °F 37.4 °F 58% 30.27 in - Calm Calm - N/A   Clear
5:50 AM 48.2 °F 39.2 °F 71% 30.30 in - Calm Calm - N/A   Clear
6:50 AM 44.6 °F 37.4 °F 76% 30.30 in - Calm Calm - N/A   Clear
7:50 AM 53.6 °F 39.2 °F 58% 30.30 in - Calm Calm - N/A   Clear
8:50 AM 62.6 °F 35.6 °F 37% 30.30 in - Calm Calm - N/A   Clear
9:00 AM 62 °F 35 °F 25%  in 6 mi Calm Calm - -  
9:50 AM 68.0 °F 35.6 °F 30% 30.30 in - Calm Calm - N/A   Clear
10:50 AM 73.4 °F 35.6 °F 25% 30.30 in - Variable 2.3 mph - N/A   Clear
11:50 AM 77.0 °F 32.0 °F 19% 30.27 in - Variable 1.2 mph - N/A   Clear
12:50 PM 78.8 °F 32.0 °F 18% 30.24 in - Variable 1.2 mph - N/A   Clear
1:50 PM 84.2 °F 33.8 °F 16% 30.21 in - Variable 1.2 mph - N/A   Clear
2:50 PM 86.0 °F 32.0 °F 14% 30.21 in - South 4.6 mph - N/A   Clear
3:00 PM 86 °F 30 °F 7%  in 6 mi South 4.6 mph - -   Clear
3:50 PM 87.8 °F 26.6 °F 11% 30.21 in - Variable 1.2 mph - N/A   Clear
4:50 PM 84.2 °F 30.2 °F 14% 30.21 in - South 2.3 mph - N/A   Clear
5:50 PM 77.0 °F 37.4 °F 24% 30.21 in 6.2 mi Variable 2.3 mph - N/A   Scattered Clouds
6:50 PM 71.6 °F 33.8 °F 25% 30.21 in - West 6.9 mph - N/A   Clear
7:50 PM 69.8 °F 30.2 °F 23% 30.21 in 6.2 mi WNW 5.8 mph - N/A   Scattered Clouds
8:50 PM 66.2 °F 33.8 °F 30% 30.24 in 6.2 mi Calm Calm - N/A   Scattered Clouds
9:00 PM 66 °F 33 °F 18%  in 6 mi Calm Calm - -   Scattered Clouds
9:50 PM 60.8 °F 39.2 °F 45% 30.24 in 6.2 mi Calm Calm - N/A   Mostly Cloudy
10:50 PM 57.2 °F 37.4 °F 48% 30.24 in 6.2 mi Calm Calm - N/A   Scattered Clouds
11:50 PM 55.4 °F 37.4 °F 51% 30.24 in - Variable 1.2 mph - N/A   Clear